Weather History for Sarnia, ON

Change the Weather History Date:

Monday, March 3, 2014

  Actual Average Record
Temperature  
Mean Temperature -2 °F -  
Max Temperature 12 °F 37 °F 64 °F (1974)
Min Temperature -16 °F 23 °F -16 °F (2014)
Degree Days  
Heating Degree Days 67    
Moisture  
Dew Point -5 °F    
Average Humidity 71    
Maximum Humidity 84    
Minimum Humidity 24    
Precipitation  
Precipitation 0.03 in - - ()
Sea Level Pressure  
Sea Level Pressure 30.41 in    
Wind  
Wind Speed 11 mph ()    
Max Wind Speed 21 mph    
Max Gust Speed 23 mph    
Visibility 7.6 miles    
Events Snow    
Averages and records for this station are not official NWS values.
T = Trace of Precipitation, MM = Missing Value Source: Averaged Metar Reports

Daily Weather History Graph

Daily Weather History Graph

Search for Another Location

Airport:

Trip Planner

Search our weather history database for the weather conditions in past years. The results will help you decide how hot, cold, wet, or windy it might be!

Date:

Astronomy

Mar. 03, 2014 Rise Set
Actual Time 7:01 AM EST 6:21 PM EST
Civil Twilight 6:33 AM EST 6:49 PM EST
Nautical Twilight 6:00 AM EST 7:22 PM EST
Astronomical Twilight 5:27 AM EST 7:55 PM EST
Moon 8:04 AM EST (3/3) 9:28 PM EST (3/3)
Length of Visible Light 12h 16m
Length of Day
11h 19m
Waxing Crescent, 8% of the Moon is Illuminated
Mar 3
Waxing Crescent
Mar 8
First Quarter
Mar 16
Full
Mar 23
Last Quarter
Mar 30
New

Hourly Weather History & Observations

Time (EST) Temp. Windchill Dew Point Humidity Pressure Visibility Wind Dir Wind Speed Gust Speed Precip Events Conditions
12:00 AM 5.0 °F -11.6 °F -4.0 °F 66% 30.37 in 9.0 mi NW 12.7 mph - N/A   Clear
1:00 AM -16 °F - -20 °F 71% 30.01 in - Calm Calm - -  
1:00 AM 3.2 °F -14.6 °F -5.8 °F 66% 30.38 in 9.0 mi NNW 13.8 mph - N/A   Clear
2:00 AM 3.2 °F -16.5 °F -5.8 °F 66% 30.39 in 9.0 mi NNW 17.3 mph 23.0 mph N/A   Clear
3:00 AM 1.4 °F -15.3 °F -5.8 °F 72% 30.40 in 9.0 mi NNW 11.5 mph 17.3 mph N/A   Clear
4:00 AM 1.4 °F -15.3 °F -4.0 °F 78% 30.39 in 9.0 mi NNW 11.5 mph - N/A   Clear
4:35 AM 1.4 °F -16.9 °F -4.0 °F 78% 30.38 in 9.0 mi NNW 13.8 mph - N/A   Mostly Cloudy
4:39 AM 1.4 °F -16.9 °F -4.0 °F 78% 30.38 in 9.0 mi NNW 13.8 mph - N/A Snow Light Snow
4:40 AM 1.4 °F -16.9 °F -4.0 °F 78% 30.38 in 9.0 mi NNW 13.8 mph - N/A Snow Light Snow
4:44 AM 3.2 °F -14.6 °F -4.0 °F 72% 30.38 in 5.0 mi NNW 13.8 mph - N/A Snow Light Snow
4:51 AM 3.2 °F -14.6 °F -4.0 °F 72% 30.38 in 3.0 mi NNW 13.8 mph - N/A Snow Light Snow
4:55 AM 3.2 °F -14.6 °F -4.0 °F 72% 30.38 in 6.0 mi NNW 13.8 mph - N/A Snow Light Snow
4:58 AM 3.2 °F -14.6 °F -4.0 °F 72% 30.38 in 8.0 mi North 13.8 mph 20.7 mph N/A Snow Light Snow
5:00 AM 3.2 °F -15.9 °F -2.2 °F 78% 30.38 in 5.0 mi North 16.1 mph - N/A Snow Light Snow
5:08 AM 3.2 °F -18.1 °F -2.2 °F 78% 30.38 in 2.5 mi NNE 20.7 mph - N/A Snow Light Snow
5:10 AM 3.2 °F -16.5 °F -2.2 °F 78% 30.39 in 3.0 mi NNE 17.3 mph 23.0 mph N/A Snow Light Snow
5:15 AM 3.2 °F -15.9 °F -2.2 °F 78% 30.39 in 5.0 mi NNE 16.1 mph 23.0 mph N/A   Haze
5:17 AM 3.2 °F -16.5 °F -2.2 °F 78% 30.39 in 6.0 mi NNE 17.3 mph 23.0 mph N/A   Haze
5:31 AM 1.4 °F -19.9 °F -4.0 °F 78% 30.41 in 9.0 mi North 19.6 mph - N/A   Mostly Cloudy
5:55 AM 1.4 °F -18.8 °F -5.8 °F 72% 30.42 in 9.0 mi North 17.3 mph 23.0 mph N/A   Scattered Clouds
6:00 AM 1.4 °F -18.2 °F -5.8 °F 72% 30.42 in 9.0 mi North 16.1 mph - N/A   Scattered Clouds
6:21 AM 1.4 °F -17.6 °F -4.0 °F 78% 30.43 in 9.0 mi North 15.0 mph - N/A   Mostly Cloudy
6:35 AM 3.2 °F -14.6 °F -4.0 °F 72% 30.43 in 7.0 mi North 13.8 mph - N/A Snow Light Snow
6:37 AM 3.2 °F -15.9 °F -4.0 °F 72% 30.43 in 5.0 mi North 16.1 mph - N/A Snow Light Snow
6:51 AM 1.4 °F -18.2 °F -4.0 °F 78% 30.43 in 7.0 mi NNE 16.1 mph - N/A Snow Light Snow
6:57 AM 1.4 °F -17.6 °F -4.0 °F 78% 30.43 in 9.0 mi NNE 15.0 mph - N/A   Overcast
7:00 AM -14 °F - -18 °F 71% 29.97 in - SW 2.3 mph - -  
7:00 AM 1.4 °F -18.2 °F -5.8 °F 72% 30.43 in 9.0 mi NNE 16.1 mph - N/A   Overcast
7:09 AM 1.4 °F -16.1 °F -4.0 °F 78% 30.43 in 9.0 mi NNE 12.7 mph 18.4 mph N/A Snow Light Snow
7:31 AM 1.4 °F -18.8 °F -5.8 °F 72% 30.44 in 9.0 mi North 17.3 mph - N/A   Overcast
8:00 AM 3.2 °F -15.9 °F -4.0 °F 72% 30.46 in 9.0 mi NNE 16.1 mph - N/A   Overcast
8:35 AM 3.2 °F -14.6 °F -4.0 °F 72% 30.47 in 5.0 mi NNE 13.8 mph 20.7 mph N/A   Haze
8:45 AM 3.2 °F -13.1 °F -4.0 °F 72% 30.47 in 6.0 mi NNE 11.5 mph 17.3 mph N/A   Haze
8:47 AM 3.2 °F -15.3 °F -4.0 °F 72% 30.47 in 5.0 mi NNE 15.0 mph - N/A   Haze
8:58 AM 3.2 °F -13.9 °F -4.0 °F 72% 30.48 in 7.0 mi NNE 12.7 mph - N/A   Overcast
9:00 AM 3.2 °F -13.9 °F -4.0 °F 72% 30.48 in 7.0 mi NNE 12.7 mph - N/A   Overcast
9:24 AM 3.2 °F -13.1 °F -4.0 °F 72% 30.48 in 9.0 mi NNE 11.5 mph - N/A   Scattered Clouds
9:47 AM 3.2 °F -13.1 °F -4.0 °F 72% 30.49 in 4.0 mi NE 11.5 mph - N/A   Haze
9:49 AM 3.2 °F -13.1 °F -4.0 °F 72% 30.49 in 4.0 mi NE 11.5 mph - N/A   Haze
9:53 AM 3.2 °F -13.9 °F -4.0 °F 72% 30.49 in 6.0 mi NNE 12.7 mph - N/A   Haze
9:59 AM 3.2 °F -13.9 °F -4.0 °F 72% 30.49 in 9.0 mi NE 12.7 mph - N/A   Scattered Clouds
10:00 AM 3.2 °F -13.9 °F -4.0 °F 72% 30.49 in 9.0 mi NE 12.7 mph - N/A   Scattered Clouds
11:00 AM 3.2 °F -11.3 °F -4.0 °F 72% 30.50 in 9.0 mi NE 9.2 mph - N/A   Clear
12:00 PM 3.2 °F -9.1 °F -5.8 °F 66% 30.51 in 9.0 mi NE 6.9 mph - N/A   Clear
1:00 PM 11 °F - -9 °F 24% 29.93 in - WNW 8.1 mph - -  
1:00 PM 5.0 °F - -5.8 °F 61% 30.50 in 9.0 mi Calm Calm - N/A   Clear
2:00 PM 5.0 °F - -4.0 °F 66% 30.49 in 9.0 mi Variable 2.3 mph - N/A   Clear
3:00 PM 6.8 °F -0.1 °F -4.0 °F 61% 30.49 in 9.0 mi NE 3.5 mph - N/A   Clear
4:00 PM 6.8 °F -2.0 °F -4.0 °F 61% 30.49 in 9.0 mi ESE 4.6 mph - N/A   Clear
5:00 PM 6.8 °F -2.0 °F -4.0 °F 61% 30.49 in 9.0 mi ESE 4.6 mph - N/A   Clear
6:00 PM 5.0 °F -2.1 °F -4.0 °F 66% 30.49 in 9.0 mi ESE 3.5 mph - N/A   Clear
7:00 PM -1 °F - -18 °F 27% 30.13 in - NW 6.9 mph - -  
7:00 PM 3.2 °F -7.8 °F -5.8 °F 66% 30.48 in 9.0 mi SE 5.8 mph - N/A   Clear
8:00 PM 1.4 °F -6.2 °F -5.8 °F 72% 30.48 in 9.0 mi South 3.5 mph - N/A   Clear
9:00 PM -0.4 °F -12.0 °F -5.8 °F 78% 30.47 in 9.0 mi SSW 5.8 mph - N/A   Clear
10:00 PM -2.2 °F - -7.6 °F 78% 30.47 in 9.0 mi Calm Calm - N/A   Clear
11:00 PM -5.8 °F -14.5 °F -9.4 °F 84% 30.46 in 9.0 mi SSE 3.5 mph - N/A   Clear